Regional Weather Roundup
Issued by NWS

Home | Current Version | Previous Version | Graphics & Text | Print | Product List | Glossary On
Versions: 1 2 3 4 5 6 7 8 9 10 11 12 13 14 15 16 17 18 19 20 21 22 23 24 25 26 27 28 29 30 31 32 33 34 35 36 37 38 39 40 41 42 43 44 45 46 47 48 49 50
750
ASUS43 KBIS 211702
RWRND

NORTH DAKOTA REGIONAL WEATHER ROUNDUP
NATIONAL WEATHER SERVICE BISMARCK ND
1100 AM CST TUE NOV 21 2017

NOTE: "FAIR" INDICATES FEW OR NO CLOUDS BELOW 12,000 FEET WITH NO
SIGNIFICANT WEATHER AND/OR OBSTRUCTIONS TO VISIBILITY.


NDZ001>003-009>011-017-211800-
NORTHWEST NORTH DAKOTA

CITY           SKY/WX    TMP DP  RH WIND       PRES   REMARKS
WILLISTON      CLOUDY     6  -2  69 W10       30.41R WCI  -9
MINOT          CLOUDY    10   2  69 NW15G24   30.35R WCI  -7
MINOT AFB      CLOUDY    10   2  70 NW16G22   30.34R WCI  -7
$$

NDZ018>021-031>035-040>046-211800-
SOUTHWEST NORTH DAKOTA

CITY           SKY/WX    TMP DP  RH WIND       PRES   REMARKS
BISMARCK       FLURRIES  19   7  59 NW20G28   30.40R WCI   3
DICKINSON      CLOUDY    11   0  61 W16       30.32S WCI  -6
GARRISON         N/A     10   2  69 NW16      30.36R WCI  -7
HETTINGER ARPT CLOUDY    13   0  56 NW15      30.35R WCI  -3
$$

NDZ004>008-012>016-024-026-027-054-211800-
NORTHEAST NORTH DAKOTA

CITY           SKY/WX    TMP DP  RH WIND       PRES   REMARKS
GRAND FORKS    MOSUNNY   18  10  71 NW16      30.27R WCI   3
GRND FRKS AFB  SUNNY     17   8  67 N15       30.27R WCI   2
DEVILS LAKE    MOSUNNY   14   8  77 W18       30.30R WCI  -3
$$

NDZ022-023-025-028>030-036>039-047>053-211800-
SOUTHEAST NORTH DAKOTA

CITY           SKY/WX    TMP DP  RH WIND       PRES   REMARKS
FARGO          MOSUNNY   20   8  60 N21G32    30.27R WCI   4
JAMESTOWN      PTSUNNY   16   6  65 NW22      30.32R WCI  -2
$$





USA.gov is the U.S. government's official web portal to all federal, state and local government web resources and services.